FW8148 Weather Reports


time (UTC)temp
C
wind
direction
speed
KPH
gust
KPH
rain 1hr
cm
rain 24hr
cm
rain mn
cm
humidity
%
barometer
mb
20260506155403 12 42 0.0 1.6 0.00 0.51 0.20 79 1009.8
20260506154503 12 27 0.0 3.2 0.00 0.53 0.20 78 1009.9
20260506153603 12 32 0.0 3.2 0.00 0.53 0.20 77 1009.7
20260506152917 12 37 1.6 3.2 0.00 0.56 0.20 75 1009.8
20260506151803 13 40 1.6 4.8 0.00 0.56 0.20 74 1009.8
20260506150904 13 39 0.0 3.2 0.00 0.56 0.20 73 1009.7
20260506150224 13 43 0.0 3.2 0.00 0.56 0.20 73 1009.5
20260506145403 13 60 1.6 4.8 0.00 0.56 0.20 73 1009.7
20260506144503 13 25 0.0 3.2 0.00 0.58 0.20 72 1009.8
20260506143603 13 33 0.0 6.4 0.00 0.61 0.20 71 1009.7
20260506142704 13 53 1.6 6.4 0.00 0.64 0.20 73 1009.6
20260506141803 13 31 1.6 4.8 0.00 0.66 0.20 76 1009.7
20260506140903 12 10 0.0 4.8 0.00 0.66 0.20 77 1009.6
20260506140008 12 44 1.6 4.8 0.00 0.66 0.20 77 1009.7
20260506135403 12 31 0.0 4.8 0.00 0.66 0.20 78 1009.7
20260506134505 12 45 0.0 6.4 0.00 0.69 0.20 78 1009.8
20260506133603 12 42 1.6 6.4 0.00 0.69 0.20 76 1009.8
20260506132705 12 34 1.6 3.2 0.00 0.69 0.20 76 1009.9
20260506131803 12 45 1.6 4.8 0.00 0.69 0.20 75 1009.7
20260506131117 13 44 1.6 4.8 0.00 0.69 0.20 74 1009.8
20260506130008 13 42 1.6 9.7 0.00 0.69 0.20 73 1009.5
20260506125405 13 42 1.6 4.8 0.00 0.69 0.20 69 1009.6
20260506124503 14 36 1.6 9.7 0.00 0.69 0.20 69 1009.4
20260506123603 14 35 1.6 4.8 0.00 0.69 0.20 69 1009.1
20260506122703 13 43 1.6 6.4 0.00 0.69 0.20 71 1009.1
20260506121803 15 50 1.6 4.8 0.00 0.69 0.20 67 1009.3
20260506120903 13 31 3.2 12.9 0.00 0.69 0.20 68 1009.3
20260506120003 13 37 3.2 6.4 0.00 0.69 0.20 68 1009.2
20260506115618 13 31 3.2 6.4 0.00 0.69 0.20 68 1009.2
20260506114503 13 20 3.2 9.7 0.00 0.69 0.20 66 1009.3
20260506113603 13 39 1.6 6.4 0.00 0.69 0.20 70 1009.3
20260506112703 13 44 3.2 9.7 0.00 0.69 0.20 71 1009.2
20260506111803 12 52 3.2 9.7 0.00 0.69 0.20 73 1009.2
20260506110903 12 45 1.6 11.3 0.00 0.69 0.20 73 1009.3
20260506110003 12 45 3.2 11.3 0.00 0.69 0.20 75 1009.3
20260506105403 12 37 3.2 9.7 0.00 0.69 0.20 74 1009.1
20260506104503 12 45 3.2 9.7 0.00 0.69 0.20 75 1009.3
20260506103603 12 25 1.6 9.7 0.00 0.69 0.20 76 1009.3
20260506102704 12 38 1.6 4.8 0.00 0.69 0.20 78 1009.2
20260506102017 12 41 1.6 9.7 0.00 0.69 0.20 80 1009.2
20260506100905 11 42 4.8 9.7 0.00 0.69 0.20 80 1009.1
20260506100003 11 34 3.2 12.9 0.00 0.69 0.20 82 1009.1
20260506095617 11 24 3.2 12.9 0.00 0.69 0.20 84 1009.0
20260506094503 11 41 3.2 9.7 0.00 0.69 0.20 85 1009.0
20260506093818 10 37 3.2 12.9 0.00 0.69 0.20 86 1009.1
20260506092703 10 34 3.2 14.5 0.00 0.69 0.20 87 1009.0
20260506092017 10 36 3.2 9.7 0.00 0.69 0.20 86 1008.9
20260506090903 10 20 3.2 12.9 0.00 0.69 0.20 87 1009.0
20260506090217 10 29 3.2 12.9 0.00 0.69 0.20 88 1009.1
20260506085403 10 30 3.2 6.4 0.00 0.69 0.20 89 1008.9
20260506084503 9 31 3.2 9.7 0.00 0.69 0.20 89 1009.1
20260506083818 9 31 3.2 9.7 0.00 0.69 0.20 89 1009.0
20260506082703 9 32 3.2 9.7 0.00 0.69 0.20 89 1008.8
20260506081803 9 33 3.2 11.3 0.00 0.69 0.20 88 1008.8
20260506080903 9 37 3.2 11.3 0.00 0.69 0.20 89 1008.6
20260506072703 9 35 3.2 16.1 0.00 0.69 0.20 91 1008.3
20260506071803 9 29 3.2 11.3 0.00 0.69 0.20 92 1008.2
20260506070903 9 34 3.2 11.3 0.00 0.69 0.20 92 1008.0
20260506062017 8 41 3.2 11.3 0.03 0.69 0.20 96 1007.6
20260506060903 8 40 3.2 12.9 0.03 0.69 0.20 97 1007.7
20260506050903 8 37 3.2 9.7 0.00 0.66 0.18 99 1007.1
20260506044503 8 44 3.2 6.4 0.03 0.66 0.18 99 1007.0
20260506043603 8 47 1.6 4.8 0.05 0.66 0.18 99 1007.0
20260506042703 8 43 1.6 6.4 0.05 0.66 0.18 99 1007.0
20260506041803 8 36 3.2 6.4 0.05 0.66 0.18 99 1007.0
20260506040903 8 34 1.6 6.4 0.05 0.66 0.18 99 1006.9
20260506040003 9 39 1.6 4.8 0.05 0.64 0.15 99 1006.8
20260506035403 9 40 1.6 6.4 0.05 0.64 0.15 99 1007.1
20260506034716 9 27 1.6 6.4 0.05 0.64 0.15 99 1006.9
20260506033603 9 31 1.6 6.4 0.05 0.61 0.13 99 1006.9
20260506032703 9 44 1.6 6.4 0.05 0.61 0.13 99 1006.9
20260506032016 9 49 1.6 9.7 0.05 0.61 0.13 99 1007.0
20260506030903 9 40 1.6 9.7 0.05 0.61 0.13 99 1006.9
20260506030003 9 43 3.2 9.7 0.03 0.58 0.10 99 1006.9
20260506025403 9 45 1.6 9.7 0.03 0.58 0.10 99 1006.8
20260506024503 9 42 1.6 6.4 0.03 0.58 0.10 99 1006.9
20260506023603 10 35 1.6 4.8 0.00 0.56 0.08 99 1006.8
20260506022703 10 38 1.6 4.8 0.00 0.56 0.08 99 1006.8
20260506021803 10 35 1.6 6.4 0.03 0.56 0.08 99 1006.8
20260506020903 10 39 1.6 4.8 0.03 0.56 0.08 99 1006.8
20260506020217 10 33 1.6 4.8 0.03 0.56 0.08 99 1006.7
20260506015405 10 27 1.6 6.4 0.03 0.56 0.08 99 1006.8
20260506014717 10 31 1.6 6.4 0.03 0.56 0.08 99 1006.6
20260506013817 10 19 1.6 4.8 0.03 0.56 0.08 99 1006.6
20260506012703 10 26 3.2 6.4 0.03 0.56 0.08 99 1006.7
20260506011803 10 26 1.6 4.8 0.03 0.53 0.05 99 1006.7
20260506010903 10 25 1.6 4.8 0.03 0.53 0.05 99 1006.8
20260506010003 10 16 1.6 4.8 0.05 0.53 0.05 99 1006.7
20260506005618 10 16 1.6 6.4 0.05 0.53 0.05 99 1006.8
20260506004503 10 29 1.6 6.4 0.05 0.53 0.05 99 1006.4
20260506003603 10 33 3.2 17.7 0.05 0.53 0.05 99 1006.5
20260506002918 10 32 3.2 11.3 0.05 0.53 0.05 99 1006.6
20260506001803 10 29 3.2 11.3 0.03 0.51 0.03 99 1006.7
20260506000903 10 21 1.6 9.7 0.03 0.51 0.03 99 1006.8
20260506000003 10 25 1.6 6.4 0.00 0.48 0.00 99 1006.9
20260505235403 10 30 1.6 6.4 0.00 0.48 0.00 99 1007.1
20260505234717 10 33 3.2 9.7 0.00 0.48 0.00 99 1006.8
20260505233603 10 38 1.6 11.3 0.00 0.48 0.00 98 1006.9
20260505232703 10 34 3.2 11.3 0.00 0.48 0.00 98 1006.9
20260505232017 10 31 1.6 11.3 0.00 0.48 0.00 98 1007.0
20260505230903 10 30 3.2 12.9 0.00 0.48 0.00 99 1006.9
20260505230003 10 39 1.6 6.4 0.00 0.48 0.00 99 1007.0
20260505225403 10 33 1.6 6.4 0.03 0.48 0.00 99 1007.1
20260505224503 10 30 3.2 12.9 0.03 0.48 0.00 99 1007.1
20260505223603 11 29 3.2 12.9 0.03 0.48 0.00 99 1007.0
20260505222703 11 34 3.2 4.8 0.03 0.48 0.00 99 1006.7
20260505221803 11 31 1.6 6.4 0.03 0.48 0.00 99 1006.8
20260505220903 11 30 1.6 6.4 0.05 0.48 0.00 99 1006.9
20260505220004 11 38 1.6 4.8 0.05 0.48 0.00 99 1006.9
20260505215403 11 31 1.6 9.7 0.05 0.46 0.46 99 1006.8
20260505214503 11 28 3.2 11.3 0.05 0.46 0.46 99 1006.9
20260505213817 11 35 1.6 14.5 0.08 0.46 0.46 99 1007.0
20260505212705 11 38 3.2 11.3 0.08 0.46 0.46 99 1007.0
20260505211805 11 26 1.6 9.7 0.08 0.46 0.46 99 1007.0
20260505210903 11 28 1.6 12.9 0.05 0.43 0.43 99 1006.9
20260505210003 11 39 1.6 9.7 0.08 0.43 0.43 99 1007.1
20260505205403 11 28 1.6 9.7 0.05 0.41 0.41 99 1007.1
20260505204503 11 26 1.6 11.3 0.05 0.41 0.41 99 1007.1
20260505203603 11 32 3.2 11.3 0.03 0.38 0.38 99 1007.1
20260505202703 11 32 1.6 4.8 0.03 0.38 0.38 99 1007.2
20260505201803 11 35 1.6 4.8 0.03 0.38 0.38 99 1006.9
20260505200905 11 24 1.6 6.4 0.03 0.38 0.38 99 1007.0
20260505200003 11 32 1.6 9.7 0.00 0.36 0.36 99 1006.9
20260505195403 11 28 1.6 9.7 0.00 0.36 0.36 99 1007.0
20260505194503 11 26 1.6 9.7 0.03 0.38 0.36 99 1007.0
20260505193817 11 38 1.6 6.4 0.03 0.38 0.36 99 1006.7
20260505192703 11 29 1.6 9.7 0.05 0.38 0.36 99 1006.6
20260505191803 11 36 1.6 6.4 0.05 0.38 0.36 99 1006.3
20260505190903 11 30 1.6 9.7 0.08 0.38 0.36 99 1006.4
20260505190003 11 35 1.6 9.7 0.08 0.38 0.36 99 1006.4
20260505185403 11 31 1.6 9.7 0.10 0.38 0.36 99 1006.4
20260505184503 11 30 3.2 9.7 0.10 0.38 0.33 99 1006.4
20260505183603 11 34 1.6 4.8 0.10 0.43 0.33 99 1006.3
20260505182703 11 24 1.6 6.4 0.10 0.43 0.30 99 1006.4
20260505182017 11 40 1.6 4.8 0.10 0.46 0.30 99 1006.3
20260505180903 11 27 1.6 6.4 0.08 0.46 0.28 98 1006.3
20260505180003 11 25 1.6 9.7 0.08 0.48 0.28 98 1006.3
20260505175403 11 23 1.6 9.7 0.08 0.46 0.25 98 1006.4
20260505174503 11 26 1.6 6.4 0.05 0.43 0.23 98 1006.5
20260505173603 11 23 3.2 9.7 0.05 0.43 0.23 98 1006.3
20260505172703 11 30 1.6 9.7 0.03 0.41 0.20 98 1006.5
20260505171803 11 36 1.6 6.4 0.03 0.41 0.20 98 1006.6
20260505170903 12 33 1.6 6.4 0.03 0.41 0.20 98 1006.6
20260505170217 12 29 1.6 9.7 0.03 0.41 0.20 98 1006.7
20260505165617 12 27 1.6 9.7 0.00 0.38 0.18 98 1006.5
20260505164503 12 27 1.6 6.4 0.03 0.38 0.18 98 1006.7
20260505163817 12 26 1.6 6.4 0.03 0.38 0.18 98 1006.7
20260505162705 12 38 1.6 6.4 0.05 0.38 0.18 98 1006.6
20260505161803 12 25 1.6 9.7 0.05 0.38 0.18 98 1006.7
20260505160903 12 33 3.2 6.4 0.05 0.38 0.18 98 1006.5
20260505160217 12 31 1.6 6.4 0.05 0.38 0.18 98 1006.7